| time (UTC) | temp C | wind direction | speed KPH | gust KPH | rain 1hr cm | rain 24hr cm | rain mn cm | humidity % | barometer mb |
| 20260504033032 | 23 | 159 | 1.6 | 6.4 | 0.00 | 0.00 | 0.00 | 34 | 1005.2 |
| 20260504030030 | 25 | 71 | 1.6 | 8.0 | 0.00 | 0.00 | 0.00 | 33 | 1005.0 |
| 20260504024531 | 25 | 61 | 3.2 | 12.9 | 0.00 | 0.00 | 0.00 | 33 | 1005.0 |
| 20260504023030 | 26 | 62 | 3.2 | 11.3 | 0.00 | 0.00 | 0.00 | 31 | 1005.1 |
| 20260504021532 | 26 | 57 | 6.4 | 12.9 | 0.00 | 0.00 | 0.00 | 31 | 1005.1 |
| 20260504020030 | 26 | 58 | 8.0 | 16.1 | 0.00 | 0.00 | 0.00 | 31 | 1005.2 |
| 20260504014528 | 27 | 53 | 9.7 | 14.5 | 0.00 | 0.00 | 0.00 | 30 | 1005.4 |
| 20260504013029 | 27 | 51 | 8.0 | 17.7 | 0.00 | 0.00 | 0.00 | 30 | 1005.5 |
| 20260504004530 | 30 | 28 | 1.6 | 9.7 | 0.00 | 0.00 | 0.00 | 28 | 1006.0 |
| 20260504003031 | 30 | 65 | 4.8 | 16.1 | 0.00 | 0.00 | 0.00 | 28 | 1006.0 |
| 20260504000030 | 30 | 51 | 8.0 | 22.5 | 0.00 | 0.00 | 0.00 | 27 | 1006.3 |
| 20260503234534 | 31 | 32 | 9.7 | 25.7 | 0.00 | 0.00 | 0.00 | 27 | 1006.4 |
| 20260503233032 | 30 | 27 | 9.7 | 17.7 | 0.00 | 0.00 | 0.00 | 26 | 1006.7 |
| 20260503231608 | 31 | 30 | 12.9 | 25.7 | 0.00 | 0.00 | 0.00 | 26 | 1006.9 |
| 20260503230033 | 31 | 35 | 4.8 | 17.7 | 0.00 | 0.00 | 0.00 | 25 | 1007.1 |
| 20260503224530 | 32 | 53 | 4.8 | 12.9 | 0.00 | 0.00 | 0.00 | 25 | 1007.5 |
| 20260503223029 | 31 | 46 | 1.6 | 8.0 | 0.00 | 0.00 | 0.00 | 25 | 1007.8 |
| 20260503221533 | 31 | 62 | 6.4 | 22.5 | 0.00 | 0.00 | 0.00 | 25 | 1008.0 |
| 20260503220107 | 31 | 61 | 6.4 | 19.3 | 0.00 | 0.00 | 0.00 | 25 | 1008.1 |
| 20260503214529 | 31 | 21 | 12.9 | 22.5 | 0.00 | 0.00 | 0.00 | 26 | 1008.3 |
| 20260503213029 | 31 | 60 | 4.8 | 16.1 | 0.00 | 0.00 | 0.00 | 27 | 1008.6 |
| 20260503211532 | 31 | 111 | 4.8 | 19.3 | 0.00 | 0.00 | 0.00 | 27 | 1008.8 |
| 20260503210030 | 31 | 38 | 8.0 | 27.4 | 0.00 | 0.00 | 0.00 | 28 | 1009.0 |
| 20260503204528 | 30 | 33 | 9.7 | 24.1 | 0.00 | 0.00 | 0.00 | 29 | 1009.1 |
| 20260503201531 | 30 | 29 | 12.9 | 27.4 | 0.00 | 0.00 | 0.00 | 33 | 1009.3 |
| 20260503200033 | 30 | 42 | 9.7 | 24.1 | 0.00 | 0.00 | 0.00 | 34 | 1009.4 |
| 20260503194529 | 30 | 218 | 4.8 | 9.7 | 0.00 | 0.00 | 0.00 | 40 | 1009.8 |
| 20260503193146 | 30 | 212 | 4.8 | 11.3 | 0.00 | 0.00 | 0.00 | 44 | 1009.9 |
| 20260503191530 | 28 | 266 | 3.2 | 8.0 | 0.00 | 0.00 | 0.00 | 48 | 1010.2 |
| 20260503190105 | 27 | 273 | 4.8 | 9.7 | 0.00 | 0.00 | 0.00 | 48 | 1010.4 |
| 20260503183107 | 26 | 288 | 3.2 | 6.4 | 0.00 | 0.00 | 0.00 | 49 | 1010.7 |
| 20260503181529 | 26 | 287 | 1.6 | 6.4 | 0.00 | 0.00 | 0.00 | 48 | 1010.8 |
| 20260503180105 | 25 | 254 | 1.6 | 4.8 | 0.00 | 0.00 | 0.00 | 46 | 1011.1 |
| 20260503174605 | 25 | 250 | 0.0 | 1.6 | 0.00 | 0.00 | 0.00 | 48 | 1011.2 |
| 20260503173031 | 24 | 276 | 1.6 | 4.8 | 0.00 | 0.00 | 0.00 | 49 | 1011.3 |
| 20260503171531 | 23 | 249 | 0.0 | 3.2 | 0.00 | 0.00 | 0.00 | 53 | 1011.4 |
| 20260503081529 | 14 | 116 | 1.6 | 6.4 | 0.00 | 0.00 | 0.00 | 79 | 1011.5 |
| 20260503071531 | 14 | 189 | 0.0 | 4.8 | 0.00 | 0.00 | 0.00 | 76 | 1011.6 |
| 20260503070104 | 15 | 219 | 0.0 | 3.2 | 0.00 | 0.00 | 0.00 | 74 | 1011.5 |
| 20260503054533 | 16 | 67 | 3.2 | 6.4 | 0.00 | 0.00 | 0.00 | 72 | 1011.3 |
| 20260503053033 | 16 | 129 | 0.0 | 3.2 | 0.00 | 0.00 | 0.00 | 72 | 1011.4 |
| 20260503051530 | 16 | 64 | 1.6 | 8.0 | 0.00 | 0.00 | 0.00 | 72 | 1011.3 |
| 20260503050114 | 17 | 152 | 3.2 | 8.0 | 0.00 | 0.00 | 0.00 | 71 | 1011.2 |
| 20260503044531 | 17 | 46 | 1.6 | 4.8 | 0.00 | 0.00 | 0.00 | 70 | 1011.1 |
| 20260503043032 | 17 | 34 | 1.6 | 4.8 | 0.00 | 0.00 | 0.00 | 70 | 1011.0 |
| 20260503041530 | 17 | 341 | 4.8 | 9.7 | 0.00 | 0.00 | 0.00 | 68 | 1010.7 |
| 20260503040037 | 18 | 340 | 3.2 | 6.4 | 0.00 | 0.00 | 0.00 | 67 | 1010.4 |
| 20260503034528 | 19 | 213 | 1.6 | 6.4 | 0.00 | 0.00 | 0.00 | 64 | 1010.1 |